Date String (YYYY-MM-DD hh:mm:ss) UTC,Instrument flags,Ambient pressure (hPa),Sample flow (lpm),Bypass flow (lpm),Sample temperature (°C),Ambient temperature (°C),ASC tube jacket temperature (°C),LED temperature (°C),Box temperature (°C),Sample RH (%),Span deviation,Mass concentration (μg/m³),Mass concentration (μg/m³),Mass concentration (μg/m³)
DateTimeUTC,F1_M11,P_M11,Q1_M11,Q2_M11,T1_M11,T2_M11,T3_M11,T4_M11,T5_M11,U1_M11,ZSPAN_M11,X0_M11,X2_M11,X1_M11
2023-01-31 17:00:00,,0825.7,4.98,0.00,23.0,22.7,00.0,31.7,24.8,05.1,0000.2,0017.38,0009.95,0009.30
2023-01-31 17:01:00,,0825.7,4.99,0.00,23.0,22.3,00.0,31.7,24.8,05.1,0000.2,0017.39,0009.82,0009.14
2023-01-31 17:02:00,,0825.7,5.02,0.00,23.0,22.0,00.0,31.7,24.7,05.1,-000.2,0017.74,0009.65,0008.96
2023-01-31 17:03:00,,0825.9,5.00,0.00,23.0,21.9,00.0,31.7,24.7,05.1,-000.4,0017.78,0009.45,0008.72
2023-01-31 17:04:00,,0825.9,4.99,0.00,23.0,21.9,00.0,31.8,24.7,05.1,-000.4,0017.83,0009.29,0008.51
2023-01-31 17:05:00,,0825.8,4.99,0.00,23.0,21.8,00.0,31.8,24.7,05.1,0000.2,0018.36,0009.18,0008.37
2023-01-31 17:06:00,,0826.1,4.99,0.00,23.0,21.8,00.0,31.8,24.7,05.0,0000.6,0018.81,0009.06,0008.23
2023-01-31 17:07:00,,0826.1,4.99,0.00,23.0,21.7,00.0,31.8,24.6,05.0,0000.8,0017.77,0008.92,0008.09
2023-01-31 17:08:00,,0825.7,5.00,0.00,22.9,21.6,00.0,31.8,24.6,05.0,0000.5,0017.51,0008.80,0007.98
2023-01-31 17:09:00,,0825.7,5.02,0.00,22.9,21.6,00.0,31.8,24.6,05.0,0000.5,0017.23,0008.75,0007.93
2023-01-31 17:10:00,,0825.7,4.98,0.00,22.9,21.6,00.0,31.7,24.6,05.0,0000.4,0017.54,0008.70,0007.89
2023-01-31 17:11:00,,0825.7,4.99,0.00,22.9,21.6,00.0,31.7,24.6,05.0,0000.3,0017.43,0008.65,0007.87
2023-01-31 17:12:00,,0825.7,5.00,0.00,22.9,21.6,00.0,31.7,24.6,05.0,0000.1,0017.06,0008.61,0007.87
2023-01-31 17:13:00,,0825.7,4.98,0.00,22.9,21.6,00.0,31.7,24.6,05.0,0000.2,0016.76,0008.62,0007.86
2023-01-31 17:14:00,,0825.7,5.02,0.00,22.9,21.6,00.0,31.7,24.6,05.0,0000.5,0017.31,0008.54,0007.81
2023-01-31 17:15:00,,0825.7,5.01,0.00,22.9,21.6,00.0,31.7,24.6,05.0,0000.5,0018.33,0008.42,0007.73
2023-01-31 17:16:00,,0825.7,5.00,0.00,22.9,21.6,00.0,31.7,24.6,05.0,0000.3,0018.02,0008.31,0007.66
2023-01-31 17:17:00,,0825.7,4.99,0.00,22.9,21.6,00.0,31.7,24.6,05.0,0000.2,0017.28,0008.24,0007.60
2023-01-31 17:18:00,,0825.7,5.02,0.00,22.9,21.6,00.0,31.7,24.6,04.9,0000.4,0017.18,0008.17,0007.52
2023-01-31 17:19:00,,0825.7,5.00,0.00,22.9,21.5,00.0,31.7,24.6,05.0,0000.6,0017.09,0008.09,0007.45
2023-01-31 17:20:00,,0825.7,4.99,0.00,22.9,21.5,00.0,31.7,24.6,05.0,0000.4,0016.94,0008.03,0007.38
2023-01-31 17:21:00,,0825.7,4.99,0.00,22.9,21.5,00.0,31.7,24.6,05.0,0000.4,0017.45,0007.96,0007.31
2023-01-31 17:22:00,,0825.6,4.99,0.00,22.9,21.5,00.0,31.7,24.6,05.0,0000.2,0017.97,0007.90,0007.23
2023-01-31 17:23:00,,0825.6,5.00,0.00,22.9,21.5,00.0,31.7,24.6,05.0,0000.9,0017.84,0007.84,0007.17
2023-01-31 17:24:00,,0825.7,4.99,0.00,22.8,21.5,00.0,31.7,24.5,04.9,0001.5,0017.34,0007.73,0007.11
2023-01-31 17:25:00,,0825.7,5.00,0.00,22.8,21.5,00.0,31.7,24.5,05.0,0001.4,0016.77,0007.69,0007.07
2023-01-31 17:26:00,,0825.7,5.00,0.00,22.8,21.5,00.0,31.7,24.5,05.0,0001.4,0015.55,0007.71,0007.07
2023-01-31 17:27:00,,0825.7,5.00,0.00,22.8,22.2,00.0,31.6,24.7,05.0,0001.5,0014.97,0007.71,0007.06
2023-01-31 17:28:00,,0825.7,5.00,0.00,23.0,23.5,00.0,31.6,25.0,04.9,0001.5,0015.23,0007.68,0007.02
2023-01-31 17:29:00,,0825.7,4.99,0.00,23.1,23.7,00.0,31.7,25.1,04.9,0001.7,0015.26,0007.65,0007.00
2023-01-31 17:30:00,,0825.7,5.01,0.00,23.1,23.2,00.0,31.7,25.0,04.9,0001.4,0015.46,0007.62,0006.96
2023-01-31 17:31:00,,0825.6,5.00,0.00,23.1,22.9,00.0,31.8,25.0,04.9,0001.7,0015.84,0007.56,0006.93
2023-01-31 17:32:00,,0825.6,5.00,0.00,23.1,22.6,00.0,31.8,24.9,04.9,0001.6,0014.67,0007.53,0006.91
2023-01-31 17:33:00,,0825.6,5.00,0.00,23.1,22.4,00.0,31.8,24.9,05.0,0001.6,0014.00,0007.50,0006.88
2023-01-31 17:34:00,,0825.6,5.00,0.00,23.1,22.3,00.0,31.8,24.9,05.0,0001.1,0013.50,0007.46,0006.84
2023-01-31 17:35:00,,0825.6,5.00,0.00,23.2,22.2,00.0,31.9,24.9,05.0,0000.8,0013.65,0007.43,0006.82
2023-01-31 17:36:00,,0825.6,4.99,0.00,23.2,22.2,00.0,31.9,24.9,05.0,0000.1,0013.43,0007.40,0006.81
2023-01-31 17:37:00,,0825.6,5.01,0.00,23.2,22.2,00.0,31.9,25.0,05.0,0000.3,0013.23,0007.33,0006.78
2023-01-31 17:38:00,,0825.6,4.99,0.00,23.2,22.1,00.0,31.9,24.9,05.1,0000.6,0013.13,0007.28,0006.75
2023-01-31 17:39:00,,0825.7,5.00,0.00,23.2,22.1,00.0,31.9,24.9,05.1,0000.7,0013.07,0007.29,0006.74
2023-01-31 17:40:00,,0825.6,5.02,0.00,23.2,22.1,00.0,31.9,24.9,05.2,0000.7,0013.01,0007.26,0006.71
2023-01-31 17:41:00,,0825.6,5.00,0.00,23.2,22.0,00.0,31.9,24.9,05.1,0000.8,0012.97,0007.28,0006.72
2023-01-31 17:42:00,,0825.6,5.00,0.00,23.2,22.0,00.0,31.9,24.9,05.1,0000.6,0012.49,0007.28,0006.72
2023-01-31 17:43:00,,0825.6,4.99,0.00,23.2,21.9,00.0,31.9,24.9,05.3,0000.8,0012.57,0007.34,0006.78
2023-01-31 17:44:00,,0825.6,5.00,0.00,23.2,21.9,00.0,31.9,24.9,05.3,0000.8,0012.78,0007.42,0006.87
2023-01-31 17:45:00,,0825.6,4.98,0.00,23.1,21.8,00.0,31.9,24.9,05.3,0000.6,0012.82,0007.50,0006.95
2023-01-31 17:46:00,,0825.5,5.00,0.00,23.1,21.7,00.0,31.9,24.9,05.3,0000.4,0012.75,0007.58,0007.00
2023-01-31 17:47:00,,0825.5,4.98,0.00,23.1,21.8,00.0,31.9,24.9,05.4,0001.2,0012.74,0007.66,0007.08
2023-01-31 17:48:00,,0825.6,5.00,0.00,23.1,21.7,00.0,31.9,24.8,05.4,0001.1,0012.93,0007.77,0007.19
2023-01-31 17:49:00,,0825.5,4.99,0.00,23.1,21.6,00.0,31.9,24.8,05.3,0000.6,0012.91,0007.86,0007.28
2023-01-31 17:50:00,,0825.6,5.01,0.00,23.1,21.5,00.0,31.9,24.7,05.3,0000.4,0012.77,0007.89,0007.34
2023-01-31 17:51:00,,0825.6,4.97,0.00,23.0,21.5,00.0,31.9,24.7,05.5,-000.0,0012.98,0008.03,0007.45
2023-01-31 17:52:00,,0825.6,4.98,0.00,23.0,21.4,00.0,31.9,24.7,05.5,-000.4,0012.95,0008.15,0007.56
2023-01-31 17:53:00,,0825.6,5.02,0.00,22.9,21.3,00.0,31.8,24.6,05.5,-000.5,0013.00,0008.23,0007.66
2023-01-31 17:54:00,,0825.5,4.98,0.00,22.9,21.3,00.0,31.8,24.6,05.5,-000.4,0013.15,0008.28,0007.70
2023-01-31 17:55:00,,0825.5,5.00,0.00,22.9,21.2,00.0,31.8,24.6,05.5,0000.0,0012.99,0008.28,0007.72
2023-01-31 17:56:00,,0825.5,4.99,0.00,22.9,21.3,00.0,31.8,24.5,05.5,-000.0,0012.99,0008.29,0007.74
2023-01-31 17:57:00,,0825.5,5.02,0.00,22.9,21.3,00.0,31.8,24.6,05.5,0000.1,0013.10,0008.35,0007.81
2023-01-31 17:58:00,,0825.5,4.98,0.00,22.9,21.3,00.0,31.8,24.6,05.6,-000.4,0013.17,0008.38,0007.85
2023-01-31 17:59:00,,0825.4,5.04,0.00,22.8,21.3,00.0,31.8,24.6,05.5,-000.1,0013.17,0008.36,0007.83
